Theta_e
329 329 330 331 331 331 331 331 329 325 322 323 324 325 323 314 315 324 328 327 323 319 317 318 319 321 322 322 321 321 321 321 320 318 319 321 322 322 323 323 321 319 317 315 312 308 307 306 307 307 307 307 306 306 306 306 305 305 305 305 305 305 305 305 307 309 311 311 312 312 312 312 313 314 315 315 315 314 315 315 314 312 308 306 304
331 332 332 332 332 333 332 331 331 327 322 323 324 325 326 322 320 325 328 327 326 323 320 319 319 319 320 321 321 321 322 323 323 322 322 324 325 323 324 324 323 322 320 318 316 312 309 308 307 307 307 307 306 306 306 306 306 305 305 305 305 305 305 305 306 308 310 311 311 312 312 312 312 314 314 315 315 315 315 314 314 312 308 305 304
332 332 332 333 333 333 333 332 332 330 324 322 324 325 326 326 326 326 327 328 327 327 325 324 323 321 320 320 321 322 323 325 326 325 325 326 326 325 324 324 324 324 324 321 319 316 313 311 309 307 307 307 306 306 306 305 305 305 305 305 305 305 305 304 305 307 309 310 311 311 312 312 312 313 314 315 315 314 314 315 314 312 309 305 304
331 331 331 332 333 333 333 332 331 331 327 323 324 326 326 327 327 327 327 328 328 328 328 327 326 325 323 323 323 323 323 324 325 324 325 326 327 326 326 324 323 324 325 324 321 318 316 314 312 310 308 308 307 306 306 306 305 304 304 305 305 305 305 304 305 306 307 309 310 311 311 312 312 313 314 315 315 314 315 315 314 312 310 306 304
330 331 332 332 333 333 333 332 332 332 330 325 324 327 327 327 327 328 328 328 328 328 328 328 326 325 325 325 325 324 323 323 323 322 322 325 326 326 326 325 323 323 324 324 322 320 318 316 314 313 312 311 309 307 306 306 305 305 305 304 304 304 305 304 304 305 307 309 310 311 311 312 312 313 314 315 315 314 315 314 314 313 310 306 304
331 331 331 332 333 333 332 333 332 332 332 329 326 327 328 328 328 328 329 329 328 329 329 328 326 326 325 325 325 325 325 325 324 323 322 323 323 324 325 325 323 322 322 323 322 321 319 317 316 315 314 314 313 311 309 307 306 305 305 304 304 304 304 304 304 305 306 308 310 311 312 312 313 313 314 315 315 314 315 314 314 313 310 307 304
332 332 332 332 333 333 332 333 333 333 332 331 328 327 329 329 329 329 329 329 329 330 329 328 327 326 325 325 325 325 325 325 326 325 324 324 324 324 324 325 324 323 321 321 321 321 321 319 317 316 316 315 315 314 313 311 310 307 306 305 304 304 304 304 304 304 306 308 309 310 311 312 312 314 314 315 314 314 314 314 314 313 311 308 304
332 332 332 332 333 333 333 333 332 332 332 332 329 328 329 329 329 329 329 330 330 331 330 329 328 326 325 325 325 325 325 325 325 325 326 326 326 326 326 326 326 325 323 323 323 322 322 321 319 318 318 318 317 317 316 315 315 312 310 307 306 304 304 303 304 307 308 307 309 310 311 312 313 314 314 315 315 314 314 314 314 313 311 309 305
330 331 332 332 333 333 333 332 331 331 333 332 331 329 329 329 329 329 330 331 330 331 331 330 328 326 325 326 325 325 325 325 325 325 325 327 327 328 327 327 326 326 326 326 326 325 324 323 323 322 321 321 320 320 319 319 318 316 314 312 309 306 304 303 303 310 311 307 308 310 311 312 313 314 314 315 315 314 314 314 314 313 312 309 306
324 327 329 330 332 332 332 330 331 332 332 331 332 330 329 329 330 330 330 331 331 331 330 330 329 327 326 326 326 326 325 325 325 324 325 325 326 327 328 327 327 327 327 327 327 327 326 326 325 324 324 323 323 322 322 321 320 319 317 315 314 310 307 303 302 308 311 307 308 310 310 312 313 314 314 315 315 314 314 314 313 313 312 309 306
318 321 323 325 328 330 330 330 331 332 331 331 333 332 331 331 331 331 331 331 331 331 331 331 330 329 327 326 326 326 325 324 324 324 325 324 324 326 326 326 325 326 327 327 327 327 327 327 326 326 325 324 323 323 323 323 322 321 319 318 317 315 312 308 302 306 312 310 307 309 310 312 313 314 315 315 315 314 314 314 313 313 312 310 307
312 315 319 321 322 324 327 329 331 331 332 332 333 332 332 332 332 331 331 331 331 331 331 331 330 330 328 327 326 327 326 325 324 324 325 324 324 324 325 323 322 323 324 325 327 328 327 327 327 327 325 324 324 324 324 324 323 322 321 319 318 318 316 312 305 305 314 315 309 308 310 312 313 314 315 315 314 313 313 313 313 313 312 310 307
307 309 312 315 317 318 321 325 329 331 331 332 332 332 331 332 332 331 331 331 331 331 331 331 331 330 329 328 328 327 327 326 324 324 324 325 325 325 325 324 323 322 321 323 327 328 328 327 327 327 326 325 324 324 324 324 324 323 323 321 319 318 317 315 309 305 313 318 314 310 310 312 314 314 315 315 315 314 313 313 312 313 312 310 308
304 305 307 310 312 314 316 320 324 327 329 330 330 332 331 331 332 332 332 332 331 331 330 330 331 331 331 330 329 328 328 326 325 324 325 325 325 325 325 325 324 324 323 323 324 326 327 328 328 327 327 326 325 325 325 324 324 324 324 322 320 319 317 316 311 306 314 321 321 317 312 311 313 314 315 315 314 313 313 313 312 312 312 310 308
304 304 305 306 308 310 313 315 318 321 324 326 327 329 329 329 329 331 331 332 332 331 330 331 331 331 332 331 331 330 329 328 327 326 326 327 327 326 326 325 324 324 324 323 323 324 325 326 327 327 327 327 326 326 325 325 325 324 325 324 322 319 318 316 311 307 314 322 323 323 319 313 313 314 315 315 315 314 313 312 312 312 312 310 308
304 304 304 305 307 308 310 312 314 315 317 320 322 324 326 326 327 329 330 330 331 330 330 330 330 331 331 331 331 330 330 329 329 328 328 328 329 328 326 326 325 324 324 324 324 323 323 324 325 327 327 327 327 327 326 326 325 325 325 325 324 321 318 317 314 308 311 320 324 324 323 318 315 314 315 316 315 313 313 312 311 312 311 310 308
304 305 305 306 306 307 309 310 312 312 312 314 316 317 319 321 323 325 326 327 328 328 328 328 329 330 331 330 330 330 330 330 329 329 329 329 329 328 326 326 325 324 325 325 325 325 324 323 323 325 326 327 327 327 327 326 326 325 325 325 324 323 320 319 317 312 310 319 324 324 324 323 319 315 314 316 316 314 312 311 310 311 311 310 309
304 305 306 307 307 308 309 310 311 311 310 310 311 313 314 315 317 319 321 323 325 326 326 327 327 327 328 329 329 328 328 329 329 329 328 328 328 327 326 326 325 325 325 326 326 325 325 325 324 323 324 326 327 327 327 326 326 325 325 325 325 324 323 321 321 318 313 316 322 324 324 324 323 319 314 315 317 315 312 311 310 310 311 310 309
305 304 305 306 307 308 309 310 311 312 311 309 309 310 311 311 312 314 317 319 321 323 324 325 325 326 326 327 327 327 327 327 328 328 329 329 328 328 327 326 326 326 326 327 326 326 326 326 325 325 324 324 325 325 325 324 325 325 325 325 325 325 324 323 323 323 319 315 318 323 324 324 325 323 317 314 316 316 312 310 309 309 310 311 310
306 305 304 304 305 305 306 307 308 308 309 308 309 309 310 311 312 313 315 317 318 320 321 321 322 323 324 324 324 325 326 326 327 328 328 329 329 329 328 328 328 328 328 328 327 327 327 326 326 326 326 325 325 325 324 324 325 325 325 325 325 325 325 324 324 324 323 318 316 319 322 324 325 325 321 316 315 316 314 311 309 309 310 311 310
306 306 305 305 305 304 305 304 305 305 305 305 306 307 308 310 311 314 316 318 318 318 319 319 319 320 321 322 323 323 323 324 325 326 326 327 328 329 329 329 329 328 328 328 328 328 328 328 327 327 327 327 326 326 325 326 326 326 325 325 325 325 325 325 325 325 325 322 319 318 320 323 325 326 325 321 317 316 316 312 309 309 309 310 311
307 306 306 306 306 306 305 305 305 305 305 304 304 305 305 306 307 310 313 316 318 319 319 318 318 319 320 320 321 321 322 323 323 324 324 325 325 326 327 328 328 328 328 328 328 328 328 328 328 328 328 328 328 327 327 327 327 326 326 325 325 325 325 325 325 325 325 324 323 321 319 321 323 325 325 324 321 317 316 314 310 308 309 310 311
307 306 306 306 306 306 306 306 306 305 305 305 305 305 304 304 304 305 307 310 313 315 317 318 318 319 320 320 319 319 320 322 322 323 324 324 324 324 324 325 325 327 328 329 328 329 328 328 328 328 328 328 328 328 328 327 327 327 326 326 326 326 326 325 325 325 325 325 324 323 322 321 322 324 324 324 323 319 317 316 312 308 308 310 311
307 307 307 306 306 306 306 306 306 305 305 305 305 305 305 305 304 304 304 304 305 307 309 312 315 317 318 319 319 319 319 320 321 322 323 324 324 323 323 324 323 324 325 326 327 328 329 328 328 328 328 329 329 328 328 328 328 328 327 327 327 326 326 326 326 326 325 325 325 324 324 322 322 323 323 323 322 320 318 317 315 310 309 310 312
308 307 307 307 306 306 306 306 306 305 305 305 305 305 305 305 305 305 304 304 304 304 304 305 306 308 310 312 315 316 317 318 319 320 322 323 323 323 324 324 324 324 323 324 324 325 327 328 328 329 329 328 328 328 329 329 328 328 328 327 327 327 326 326 326 326 326 325 325 325 324 324 323 322 322 322 322 321 318 317 317 314 311 311 313
308 308 307 307 306 306 306 306 306 306 305 305 305 305 305 305 305 304 304 304 304 303 303 303 303 303 304 304 306 309 312 315 316 317 319 320 322 322 323 323 323 323 323 323 324 323 325 326 327 328 329 328 328 327 327 328 329 328 328 328 327 326 326 326 326 326 326 325 325 326 325 324 324 322 321 321 322 322 319 317 317 316 314 314 315
308 308 307 307 307 307 306 306 306 306 305 305 305 305 305 305 305 305 304 304 303 303 303 303 303 302 302 302 302 303 305 309 312 315 317 318 320 320 320 321 322 322 322 323 323 323 323 324 325 326 327 327 327 327 327 327 328 328 328 328 327 326 326 327 327 326 326 326 326 326 325 324 324 323 322 321 321 322 319 317 317 318 316 317 318
308 308 308 307 307 307 306 306 306 306 305 305 305 305 305 305 305 305 304 304 304 304 303 303 303 302 302 302 302 302 302 304 307 311 315 316 318 318 318 319 320 321 321 321 322 322 323 323 323 324 324 325 326 327 327 328 328 328 327 327 327 327 327 327 327 327 326 326 325 325 325 324 324 323 322 322 322 322 320 317 317 317 316 317 320
309 308 308 307 307 307 306 306 306 305 305 304 304 305 305 305 305 304 304 304 304 304 303 303 303 303 303 302 302 302 302 302 303 306 309 313 315 316 317 317 318 319 319 320 321 321 322 321 322 323 323 324 325 326 327 327 327 327 326 326 326 326 327 327 327 327 326 326 326 326 325 324 323 323 322 322 322 322 321 318 316 317 316 316 319
309 308 308 307 307 307 306 306 306 305 304 305 305 305 305 305 304 304 304 303 303 304 303 303 303 303 303 303 303 303 303 302 302 302 304 307 310 313 315 316 316 317 317 318 319 319 318 319 320 321 322 323 324 325 326 326 326 327 326 326 327 327 326 327 327 326 326 326 326 325 325 324 323 323 323 323 322 322 321 319 316 316 316 315 317
309 309 308 307 307 306 306 306 306 305 304 304 305 305 305 304 304 304 303 303 303 303 303 303 303 303 303 303 303 303 303 303 302 302 302 303 305 308 310 312 313 315 316 317 318 316 316 318 319 319 320 321 321 321 323 325 326 326 326 326 326 326 326 326 326 326 326 326 326 325 325 324 323 323 323 323 322 321 320 320 317 315 316 316 316
309 309 308 307 307 306 306 306 305 304 304 304 304 304 304 304 303 303 303 303 303 303 303 303 303 303 302 302 302 302 303 303 303 303 302 302 302 304 306 309 311 313 315 317 317 316 315 316 317 318 319 319 318 318 320 322 323 324 324 324 324 325 325 326 326 326 326 325 325 325 325 324 323 323 323 322 321 320 319 320 319 315 315 316 315
309 309 308 307 306 306 306 306 304 304 304 304 304 304 303 303 303 303 303 303 303 303 303 303 303 303 302 302 301 301 302 303 303 303 303 303 303 302 304 306 308 311 313 315 316 316 315 315 316 318 318 318 318 317 317 318 318 319 321 322 323 323 323 325 325 325 325 325 325 325 324 324 324 323 323 322 320 320 320 321 319 315 314 316 316
309 309 308 307 306 306 306 305 304 304 304 303 303 303 303 303 303 303 303 303 303 303 303 302 302 302 302 301 301 301 302 303 303 303 304 304 304 303 302 304 306 309 312 313 315 316 315 315 315 316 317 319 320 319 319 318 316 316 317 319 321 321 322 322 323 324 325 325 326 326 325 324 324 323 323 323 321 320 320 321 320 316 313 315 316
309 309 308 307 306 306 306 304 303 303 303 303 303 303 303 303 303 303 303 303 302 302 302 302 302 302 302 302 301 301 302 302 303 303 304 304 304 304 303 303 304 306 309 312 313 314 315 314 314 315 317 319 320 320 320 320 319 317 316 316 318 320 321 322 322 323 324 325 325 325 325 325 325 324 323 323 321 320 321 321 321 317 313 314 317
310 309 308 306 306 306 305 303 303 303 303 303 303 303 303 303 302 302 302 302 302 301 301 301 301 301 301 301 301 301 302 302 302 302 303 304 304 305 305 304 304 304 306 309 310 312 313 314 314 315 316 316 318 319 320 320 321 320 318 316 316 317 319 321 322 323 323 324 324 324 325 325 325 324 323 323 322 321 320 321 321 319 314 313 316
310 309 307 307 306 305 303 303 303 303 303 303 303 302 302 302 302 301 301 301 300 300 300 300 300 300 300 300 300 300 301 301 301 301 302 303 303 304 305 305 305 305 304 306 307 309 311 312 312 313 314 315 316 317 319 320 320 320 319 318 318 317 317 317 319 322 323 323 324 323 324 325 324 324 323 323 322 321 320 321 322 320 317 314 315
310 309 307 307 306 304 303 303 303 302 302 302 302 302 301 301 300 300 300 300 300 300 299 299 299 299 299 299 299 299 300 301 301 301 301 301 302 303 304 304 305 305 305 305 305 306 308 310 311 311 312 314 314 316 317 319 320 321 321 320 320 319 318 317 318 322 323 324 323 323 324 324 324 324 323 323 323 322 320 320 321 321 318 315 315
310 308 307 306 304 303 302 302 302 302 302 302 302 301 301 300 300 300 300 300 300 299 299 298 298 298 298 298 298 298 299 300 300 300 300 301 301 301 302 303 303 303 303 304 304 305 305 306 308 310 311 312 313 314 315 317 319 320 320 321 321 321 319 318 318 320 322 324 324 323 323 324 324 324 323 323 323 322 321 320 321 322 320 317 315
309 308 307 305 303 302 302 302 301 301 301 301 301 301 300 300 300 300 300 300 300 299 298 296 296 296 297 296 297 298 298 299 300 300 300 300 300 300 301 301 302 302 302 302 303 303 303 304 306 307 309 310 312 313 313 316 319 319 319 320 321 321 321 320 319 319 320 323 324 324 323 324 324 324 323 323 322 322 321 320 320 323 322 318 316
309 308 305 303 303 302 302 301 301 301 301 301 301 301 301 300 300 300 300 300 299 298 296 296 295 296 296 296 297 298 298 299 299 299 300 300 300 300 300 300 300 301 301 301 301 301 302 303 304 305 306 307 309 311 312 314 316 318 319 319 320 320 321 321 321 320 320 322 324 325 324 324 324 324 323 323 323 323 322 321 320 322 323 320 317
308 306 304 303 303 302 302 302 301 301 301 301 301 301 301 301 301 301 300 299 298 296 295 295 295 296 297 297 298 298 299 299 299 299 299 299 299 299 299 299 299 299 299 300 300 300 300 301 302 304 305 306 307 309 310 312 314 317 319 319 319 319 319 320 322 322 321 321 323 324 324 324 324 325 324 323 323 323 322 322 322 322 323 321 318
307 305 304 304 303 302 302 302 302 302 301 301 301 301 301 301 300 299 297 296 295 295 295 296 296 296 297 297 298 298 298 298 298 298 299 299 299 298 298 298 298 298 298 299 299 300 299 300 301 302 303 305 306 307 308 310 312 315 317 317 318 319 318 319 321 322 321 321 322 323 324 324 324 325 325 324 325 324 323 323 323 323 324 323 320
305 305 304 303 303 302 303 303 303 302 301 301 301 301 301 299 297 296 295 295 295 296 296 297 297 297 297 297 298 298 298 298 298 298 298 298 299 298 298 298 298 298 298 298 298 299 299 299 300 300 302 303 305 306 306 307 309 312 315 316 316 317 318 318 318 320 320 321 322 322 323 324 324 324 325 324 325 326 325 324 323 323 324 324 323
305 305 304 303 303 303 304 303 303 302 301 301 301 300 298 296 295 295 295 295 295 296 296 297 297 297 297 297 297 298 297 297 297 297 298 298 298 298 298 298 298 298 298 297 298 298 298 298 298 300 301 302 303 305 305 305 306 308 311 313 314 315 316 317 317 318 318 319 320 321 322 322 323 324 324 324 324 325 325 325 324 323 324 324 324
306 305 304 304 304 304 304 303 303 302 301 300 298 296 295 294 294 294 295 294 295 295 295 296 296 297 297 297 297 297 297 297 296 296 296 297 297 298 298 298 298 298 298 298 297 297 297 297 297 299 301 301 302 304 304 303 304 306 308 310 312 312 313 314 315 315 316 317 318 319 320 321 321 322 323 323 323 324 324 325 324 323 323 323 324
305 304 304 305 305 304 304 303 302 301 299 297 295 294 293 293 293 293 294 294 294 294 294 295 296 296 297 297 296 296 296 296 295 295 295 295 296 296 297 297 297 298 298 298 298 297 297 297 297 298 300 301 301 302 302 301 301 303 305 307 309 310 311 312 313 314 315 316 316 316 317 319 320 321 321 321 322 322 323 324 324 323 323 322 322
304 305 305 305 304 304 303 302 300 298 297 296 295 294 293 292 292 292 293 293 293 293 294 295 296 296 296 296 296 296 296 295 295 295 294 294 294 295 295 296 296 297 297 297 297 297 297 297 297 297 298 299 300 300 301 300 300 301 303 305 307 308 310 311 312 314 315 316 316 315 316 317 318 319 320 320 320 321 322 322 323 323 323 322 321
305 305 305 304 304 303 301 299 297 296 297 296 295 294 293 293 292 293 293 293 293 294 294 295 295 296 296 296 295 295 295 295 295 294 294 294 294 294 294 295 295 296 297 297 297 297 297 297 297 297 297 298 298 299 300 300 299 299 301 304 306 307 309 310 311 313 314 315 315 315 315 316 317 318 318 319 319 320 320 321 321 322 322 321 320
305 305 304 303 302 299 298 297 297 297 297 296 294 293 293 293 293 293 293 293 293 294 295 295 295 295 295 295 295 295 295 294 294 294 293 293 293 293 293 293 294 295 296 296 296 297 296 296 296 296 296 297 297 297 299 300 300 299 299 302 305 306 308 309 310 311 312 314 315 315 315 316 316 317 317 318 319 319 319 319 320 320 320 320 319
304 303 302 300 298 297 296 297 297 297 296 294 294 293 293 293 292 292 293 293 294 294 295 295 295 295 295 295 295 294 294 293 293 293 293 292 292 293 292 292 293 294 295 295 296 296 295 295 295 295 295 296 296 296 297 299 300 299 299 300 303 305 307 308 309 310 311 312 313 314 315 316 316 316 317 317 318 318 318 318 318 318 318 318 318
Wind_Speed
10 10 9 10 12 13 12 11 11 10 10 8 9 8 8 11 17 18 17 18 17 17 18 20 23 24 20 16 15 14 13 11 10 11 10 8 7 6 5 5 5 5 5 4 4 6 7 8 9 11 10 9 10 10 9 9 8 7 6 5 4 2 2 3 2 2 2 1 1 2 2 3 4 5 6 8 9 12 14 16 18 19 20 19 18
9 10 10 11 12 13 13 14 14 13 12 12 11 10 8 11 15 16 16 17 17 17 16 17 18 20 20 17 15 14 13 11 10 11 10 8 7 6 5 5 5 5 5 5 5 5 6 6 7 9 10 10 10 11 10 10 9 9 8 6 5 4 3 3 4 3 3 3 2 2 2 2 3 4 5 7 8 10 13 15 17 19 19 18 17
10 11 11 11 12 13 14 15 16 15 15 14 14 13 11 11 12 13 14 15 15 15 15 16 16 16 17 17 15 15 14 11 10 10 10 9 7 6 6 6 6 5 5 6 6 6 6 6 7 8 9 10 11 11 11 12 11 10 10 8 7 5 4 4 4 4 4 4 3 3 2 2 3 4 5 6 7 9 12 14 16 18 18 18 16
13 13 13 13 13 13 13 15 16 16 16 16 17 16 15 14 13 12 12 13 13 13 14 15 16 16 15 16 15 14 13 12 12 12 12 10 8 7 7 7 7 6 6 7 7 7 7 7 7 8 9 10 11 12 12 12 12 11 11 10 9 7 6 6 5 5 5 5 5 4 3 3 2 3 4 5 6 8 10 13 15 17 18 17 16
14 14 14 14 13 12 12 14 16 17 17 17 18 19 18 17 15 15 14 13 13 13 13 14 16 16 15 15 15 13 11 11 12 14 13 12 11 9 9 9 9 9 8 9 9 9 9 8 8 9 10 10 11 12 12 12 12 13 13 12 11 10 8 7 6 6 6 6 6 5 4 4 3 3 4 4 6 7 9 12 14 16 17 16 15
14 14 14 14 13 13 13 13 15 16 18 18 19 20 19 19 18 17 16 15 14 13 12 13 15 16 15 15 15 13 11 11 11 12 12 12 12 12 11 11 11 11 11 11 11 11 11 11 10 10 11 11 11 12 13 13 13 13 14 13 12 12 11 9 8 8 7 7 7 6 5 5 4 4 4 4 5 6 8 10 12 14 15 15 14
14 14 13 13 13 13 13 13 14 15 18 20 20 20 19 20 20 19 19 17 15 14 13 13 15 16 16 15 15 13 12 12 11 12 11 11 11 11 12 13 13 13 13 13 13 13 13 13 13 13 12 13 12 12 13 13 14 13 14 14 14 13 13 12 10 9 9 8 8 8 7 6 4 4 4 3 4 5 7 9 11 13 14 14 14
15 13 12 12 13 15 14 12 13 14 17 20 21 21 19 20 22 22 20 18 16 15 14 15 16 17 17 15 14 14 13 13 13 13 12 12 11 11 11 13 14 14 14 14 14 14 14 13 14 14 14 14 12 12 13 13 14 13 13 14 15 14 14 14 13 10 10 10 9 9 8 7 5 4 4 3 3 4 5 7 9 12 13 14 13
16 15 14 12 12 14 12 11 13 13 13 17 20 21 19 18 21 24 23 19 17 16 14 15 16 18 18 15 14 14 14 14 14 14 15 15 14 12 12 12 14 15 14 14 15 15 14 13 13 14 14 13 12 11 12 13 14 14 13 13 14 14 14 15 14 12 11 11 11 10 9 8 7 5 4 4 3 3 4 6 8 10 12 13 12
15 17 18 15 13 12 10 11 14 13 12 14 18 21 20 19 20 24 24 19 16 16 15 14 15 17 18 16 14 13 14 16 16 16 16 17 17 16 15 13 14 15 16 16 16 15 14 13 13 13 14 13 12 11 11 13 14 14 14 13 13 13 14 15 16 14 13 13 13 12 11 9 8 6 5 4 3 3 3 5 7 9 10 11 12
11 14 16 17 16 16 14 13 14 14 13 15 17 18 20 20 19 21 21 18 16 16 15 15 15 15 17 18 16 14 14 16 18 19 18 17 16 16 16 15 15 16 17 17 17 17 16 15 14 14 14 13 13 13 12 13 14 15 15 15 14 13 12 13 15 16 14 14 14 13 12 11 9 7 6 4 4 3 3 4 5 7 9 10 10
9 10 11 11 12 14 15 16 15 14 13 14 14 14 18 21 20 19 19 19 19 18 17 16 16 16 17 19 19 17 16 16 19 21 21 19 17 17 17 17 17 17 17 17 18 18 18 17 17 16 15 14 14 14 14 14 14 15 16 16 15 14 12 11 13 15 16 15 14 14 13 12 11 9 7 5 4 4 4 4 5 6 8 9 9
10 9 8 8 8 8 10 15 17 16 14 13 13 13 15 17 19 19 18 20 21 21 19 17 17 18 17 17 18 19 18 17 19 22 22 21 19 19 20 20 20 19 18 18 19 19 19 19 19 18 17 16 16 15 16 15 15 16 16 17 16 15 13 11 11 13 15 15 14 14 14 13 12 10 8 7 5 5 5 5 5 6 7 8 8
9 9 7 7 8 7 8 11 14 16 15 14 13 12 13 11 14 18 18 19 21 23 22 19 18 17 15 15 15 17 19 19 20 21 21 20 20 21 22 22 23 22 20 19 20 20 20 20 20 20 19 19 18 17 17 17 17 17 16 17 17 16 14 11 11 12 14 16 16 14 13 14 13 12 10 8 7 7 6 6 5 5 7 7 7
6 8 7 7 7 7 8 8 9 12 13 12 11 10 11 8 8 13 16 17 18 21 22 21 19 15 12 13 13 14 17 19 21 22 21 21 21 22 23 23 23 23 23 22 22 22 22 22 22 22 21 21 20 19 19 19 18 18 17 17 17 16 14 10 10 12 13 16 18 17 14 14 14 13 12 10 9 8 8 7 6 6 6 6 6
4 5 6 6 6 6 7 7 7 7 8 10 9 8 9 8 6 10 14 14 14 16 17 18 20 16 10 9 12 13 14 15 18 20 21 21 22 23 23 23 22 22 23 24 24 24 23 23 23 23 23 22 22 21 21 20 20 19 18 17 16 17 14 9 8 11 13 16 19 19 16 14 15 15 13 12 11 9 9 9 8 7 7 6 5
3 3 3 3 3 4 4 5 5 5 5 7 7 7 8 8 8 9 11 12 12 12 12 13 15 17 14 12 11 11 12 13 15 17 19 19 21 22 23 23 23 22 23 24 24 25 25 25 25 25 24 24 23 23 23 22 21 21 19 18 17 16 15 10 7 8 12 16 17 19 18 15 15 15 15 14 12 11 10 10 9 8 7 6 5
6 3 2 1 1 1 2 3 4 5 4 5 6 7 7 8 9 10 10 11 11 11 11 9 9 11 15 15 13 11 11 11 13 14 16 17 18 20 22 24 24 24 24 24 25 25 26 26 26 26 26 26 25 25 26 25 23 22 21 20 18 17 16 12 8 6 8 14 17 18 20 19 16 16 16 15 14 13 12 11 11 9 8 7 5
8 7 6 4 3 1 1 2 4 5 5 4 5 6 6 7 8 10 10 10 10 10 9 9 8 8 10 13 14 14 13 13 12 14 15 17 18 18 20 22 23 25 25 25 25 26 27 27 27 27 27 28 28 28 28 27 25 24 23 22 20 18 18 16 12 8 6 10 16 19 20 21 19 17 16 17 16 15 14 13 12 10 9 7 6
6 7 8 7 7 5 3 2 2 1 2 2 2 4 6 6 7 8 10 11 11 11 10 10 9 9 10 12 12 13 14 14 14 15 15 18 20 18 18 20 20 21 21 22 23 25 27 28 28 28 28 28 28 28 28 27 26 25 24 23 22 20 19 18 16 13 9 8 12 17 20 22 22 20 18 18 18 17 15 14 13 11 10 8 7
5 6 6 7 7 6 5 4 4 4 4 4 3 2 3 5 6 7 9 10 11 12 12 12 12 11 11 11 11 12 12 12 13 15 16 17 20 20 19 20 21 21 19 18 19 20 22 25 27 28 28 28 28 27 26 26 25 25 24 23 23 22 21 20 19 17 14 10 10 12 17 22 23 22 20 19 20 19 18 16 14 12 11 9 7
3 4 5 5 5 5 5 4 4 4 4 4 3 3 3 4 5 6 8 10 12 13 14 14 14 14 13 13 13 13 12 10 11 12 14 16 18 20 20 21 23 24 24 23 23 23 22 21 22 25 27 27 26 26 26 25 24 23 23 22 22 23 22 22 21 20 18 15 12 11 14 19 23 25 23 20 20 21 20 18 16 14 12 10 8
1 2 3 3 3 3 3 3 3 3 4 4 4 3 4 5 6 7 8 10 12 14 15 16 17 17 16 15 16 15 13 12 12 11 11 14 17 20 21 22 24 26 26 27 28 29 28 25 22 22 24 25 26 26 26 25 24 23 22 22 22 23 23 24 23 22 21 19 17 14 14 17 21 26 27 24 21 21 22 20 18 15 13 12 10
2 1 1 1 1 1 2 3 3 4 5 5 5 5 5 6 7 8 10 11 12 14 15 16 18 19 19 18 18 18 16 17 17 16 13 12 14 18 19 20 23 27 28 27 26 27 29 30 28 25 24 24 25 26 26 27 26 24 24 23 23 23 23 24 24 24 24 22 21 18 17 17 20 24 27 27 24 22 23 23 20 17 15 13 11
3 3 2 1 2 3 4 5 6 7 7 7 7 7 7 7 7 8 9 11 13 15 16 17 18 19 20 20 20 20 20 20 21 20 19 18 16 17 17 17 20 24 26 26 27 27 27 28 30 30 29 26 25 25 26 28 27 26 25 26 26 26 25 25 25 25 26 25 24 22 20 19 20 21 24 27 27 24 23 24 23 20 17 15 13
5 5 4 3 3 4 6 7 8 9 10 9 9 9 9 8 7 7 8 9 10 12 14 16 18 19 20 21 21 22 22 22 22 22 22 21 20 19 18 18 19 21 23 23 25 26 27 25 25 26 29 30 28 27 27 28 28 26 26 27 28 28 28 27 26 26 27 27 26 25 22 22 22 21 21 24 27 25 22 23 24 22 19 17 15
8 7 6 5 5 6 7 9 10 11 11 11 10 10 9 9 8 7 7 8 8 9 10 12 14 17 19 21 22 22 23 23 24 24 23 22 22 22 20 20 21 23 24 23 23 24 25 25 23 22 24 27 27 27 27 28 28 28 28 28 30 30 31 31 28 26 27 28 28 27 25 23 23 23 22 22 25 26 23 22 24 24 22 20 17
10 9 8 7 7 7 9 10 12 12 12 11 10 10 10 10 10 10 10 9 9 9 9 10 11 13 15 18 20 22 23 24 25 25 25 24 24 24 23 20 20 23 25 25 24 24 23 23 22 22 21 22 24 25 26 27 29 30 27 23 25 29 30 31 29 27 27 29 30 29 27 24 23 24 24 23 25 26 25 23 25 25 24 22 19
11 11 10 9 8 9 10 12 13 14 13 13 12 12 12 12 13 13 12 12 12 11 11 12 12 13 14 15 17 19 21 23 24 25 26 26 26 25 25 22 20 21 24 26 26 25 24 23 23 22 21 20 21 22 25 28 30 32 28 22 22 26 27 28 28 27 28 30 31 31 29 26 24 24 25 26 27 26 25 24 25 26 25 23 21
12 12 11 10 9 10 12 13 14 14 14 13 13 13 13 14 15 15 15 15 15 14 14 15 15 15 16 16 16 17 19 20 21 24 26 27 27 26 26 25 23 22 23 26 29 30 29 27 25 24 24 22 20 20 23 25 27 27 27 26 27 27 28 29 29 27 26 28 31 32 30 28 26 25 25 27 28 28 27 25 25 27 28 25 23
13 13 12 11 11 12 13 14 15 14 14 13 13 14 14 15 16 17 18 18 18 18 18 18 18 18 18 18 18 19 20 20 20 20 22 25 26 27 27 27 26 24 23 24 29 32 30 29 28 27 26 24 23 22 22 23 24 24 25 26 26 26 28 30 30 28 26 26 29 31 31 30 28 26 25 26 27 28 28 27 26 27 29 27 25
14 14 13 12 12 13 15 15 15 15 14 13 14 14 15 17 18 19 20 20 21 21 21 22 21 21 21 21 20 20 21 22 21 20 20 21 24 26 27 27 26 26 25 24 26 30 30 29 30 29 27 26 26 25 23 24 24 25 26 26 25 25 25 28 30 30 28 28 28 30 32 32 30 28 27 26 26 27 27 27 26 27 29 29 26
15 15 14 13 14 15 15 15 15 15 14 13 14 15 17 18 20 21 22 22 23 23 24 24 23 24 24 24 23 22 21 22 22 22 21 20 21 24 26 27 27 26 25 25 25 28 30 30 28 28 27 25 26 26 25 25 25 25 26 26 26 26 25 26 28 29 29 29 29 30 32 33 32 31 29 27 27 27 26 26 26 26 29 31 28
17 15 14 14 15 16 16 15 14 14 13 13 14 16 18 20 21 22 23 23 25 26 26 26 26 26 26 25 24 23 21 21 22 22 23 22 22 22 24 26 27 27 26 25 24 25 30 33 31 29 27 23 21 23 24 26 26 25 25 24 25 26 27 26 27 28 29 28 28 29 32 33 34 33 32 29 29 28 26 26 26 26 27 30 29
18 17 16 15 16 16 15 14 13 12 12 12 14 16 18 20 21 22 23 24 25 26 27 28 28 27 27 27 26 24 23 22 22 22 23 23 24 23 23 23 25 27 26 25 24 23 26 31 32 30 29 24 20 19 21 22 24 26 26 25 25 26 26 26 27 28 29 29 28 29 31 33 34 35 34 32 30 30 28 27 26 26 26 28 29
19 18 17 17 17 16 14 13 12 11 11 13 14 16 18 19 20 21 22 23 24 25 26 27 28 28 28 29 29 27 25 25 25 24 24 24 25 24 24 23 23 26 27 26 26 25 26 30 33 32 30 29 26 22 20 21 22 25 27 27 26 26 25 25 26 27 29 31 30 30 31 33 34 35 35 34 32 31 31 29 28 27 27 28 30
20 19 18 18 16 14 13 12 11 11 12 14 15 16 17 18 19 19 20 21 22 24 25 27 28 29 29 31 31 28 26 26 26 26 25 24 24 24 24 24 23 24 26 27 28 29 29 33 36 36 34 33 31 26 23 22 22 23 25 26 26 27 27 26 26 26 28 30 32 31 30 32 34 36 37 36 34 33 33 33 30 28 28 29 30
21 20 19 17 14 13 12 11 10 11 13 15 16 17 17 17 18 20 21 23 25 26 27 28 29 29 29 31 31 29 26 25 25 26 25 25 24 24 24 25 24 23 24 26 27 28 30 33 37 39 38 36 35 31 26 23 23 23 23 25 27 28 28 27 26 26 26 28 31 32 31 31 32 35 38 37 36 36 36 36 34 29 27 29 31
21 20 18 15 13 12 11 10 11 13 14 16 17 17 17 18 20 22 24 26 28 29 30 31 31 30 29 30 30 30 28 26 26 26 26 25 25 25 25 25 25 25 26 26 26 27 28 31 35 39 40 39 37 36 31 26 25 23 21 24 27 29 29 27 26 26 26 27 29 31 32 30 30 33 37 39 38 38 38 38 37 33 28 28 31
20 19 17 14 12 11 11 11 12 14 16 17 17 17 18 20 22 24 26 28 31 32 33 33 32 32 31 30 30 31 31 30 29 28 28 27 27 28 28 27 28 29 30 30 30 29 29 30 33 37 40 40 39 37 33 29 26 25 21 21 25 27 28 29 28 26 26 27 28 30 31 30 30 32 36 40 40 39 39 39 40 38 32 27 29
19 18 15 13 12 12 11 12 13 15 17 17 17 18 20 22 24 27 29 31 33 35 35 35 34 33 32 31 30 30 31 31 30 31 31 31 31 32 32 31 32 32 33 33 33 32 31 31 32 34 37 40 39 37 36 33 30 27 23 21 23 24 27 30 30 27 26 26 27 29 30 30 31 33 35 39 42 41 40 39 42 43 38 30 27
17 16 14 13 13 12 12 13 15 16 17 17 18 20 22 24 27 30 32 35 36 36 36 36 36 35 34 33 32 31 31 31 30 31 32 33 34 35 35 35 34 34 34 34 34 34 33 34 34 34 35 38 38 38 38 36 33 31 28 26 24 22 26 31 31 28 26 26 27 30 30 29 31 33 35 38 41 42 41 40 41 45 44 35 27
16 15 13 13 13 13 14 14 16 17 18 18 19 21 24 26 29 32 35 36 36 36 36 36 36 35 35 35 34 34 33 33 32 32 32 33 33 34 35 35 34 34 34 34 35 34 34 35 36 35 36 37 37 36 37 37 35 35 35 33 28 23 23 29 31 28 25 25 27 30 31 31 31 33 35 37 39 41 41 41 42 44 47 41 31
15 14 13 14 14 14 15 15 17 18 19 20 21 23 26 29 31 32 33 33 33 34 34 34 35 35 36 36 37 37 37 36 36 36 36 36 36 35 35 35 35 35 34 35 36 35 35 35 36 37 37 37 36 35 36 36 35 36 37 38 34 28 24 26 28 28 26 26 28 30 32 33 33 34 34 35 38 40 41 43 44 45 47 44 35
14 14 14 14 14 15 15 16 17 19 20 22 23 26 29 30 30 30 30 30 31 32 33 33 34 35 35 37 38 39 40 39 39 39 38 39 39 38 38 38 37 37 35 35 35 36 36 36 37 39 38 37 38 36 34 34 33 33 35 37 37 34 31 29 28 26 25 27 30 32 33 34 35 36 35 33 36 39 40 44 47 47 47 45 39
14 14 14 14 15 16 16 17 18 20 21 23 25 27 28 28 27 28 29 31 32 33 34 34 34 35 35 36 38 39 39 40 40 40 40 40 40 40 40 40 39 38 37 36 35 35 35 36 38 39 38 36 37 37 34 32 31 30 30 31 33 33 34 34 32 29 27 27 28 31 34 35 33 34 33 31 33 36 38 42 47 48 48 47 44
14 14 14 15 16 16 17 18 19 21 22 23 25 26 27 27 28 30 31 33 35 36 36 35 34 35 35 36 37 38 39 39 39 39 39 39 40 41 41 41 41 40 39 38 36 35 35 35 37 39 38 36 35 35 35 33 32 31 28 27 29 30 30 31 34 34 32 29 28 30 33 34 33 31 29 29 32 35 36 39 43 44 45 46 47
15 14 14 15 16 16 17 18 20 21 21 23 26 27 28 29 31 33 34 37 39 39 39 37 36 36 36 36 38 38 39 39 38 38 38 38 39 41 42 43 43 43 42 41 38 37 37 37 38 38 39 38 36 35 34 34 34 32 30 29 31 31 30 31 35 37 37 35 32 30 29 31 31 30 29 30 32 34 35 38 40 40 41 45 47
14 14 15 15 15 16 17 18 19 20 21 24 27 28 29 30 32 35 38 40 42 41 40 39 38 38 38 38 38 39 40 40 39 38 37 37 39 41 42 44 45 45 45 43 40 39 38 38 38 38 38 38 37 37 35 34 35 34 33 34 34 30 30 33 36 39 41 40 37 32 29 28 28 28 30 31 32 32 33 35 37 37 39 43 44
14 14 14 14 14 15 15 16 17 20 22 25 27 28 29 31 34 38 41 42 43 42 41 40 40 40 40 40 39 40 41 40 40 39 38 37 39 40 42 44 46 47 47 44 42 41 40 38 38 37 37 37 36 37 36 35 35 34 37 41 37 31 31 34 35 37 40 42 40 34 31 31 30 30 31 32 31 32 32 33 35 36 38 41 43
14 13 13 13 13 13 13 15 18 21 24 26 27 28 30 33 37 40 41 42 42 42 42 42 42 42 41 41 41 40 41 41 40 40 39 38 40 41 42 43 47 49 48 44 43 42 40 39 39 38 38 38 36 36 36 35 34 33 37 42 40 34 33 35 35 35 38 42 42 37 34 34 33 32 33 32 31 30 30 31 33 34 35 38 42
Wind_Direction
226 231 233 238 240 238 237 227 215 204 187 170 154 142 135 150 159 157 150 148 151 159 170 180 188 195 199 198 199 208 215 220 229 237 240 244 252 259 276 291 293 295 298 294 273 252 246 248 247 247 249 256 264 270 273 272 268 270 273 275 281 279 266 268 265 249 247 269 315 0 19 25 26 20 13 13 10 9 9 7 7 10 12 16 20
238 243 243 245 248 244 240 229 219 210 194 179 167 163 157 154 157 157 152 148 145 146 155 166 179 189 197 201 203 210 218 220 225 236 239 242 252 257 270 288 294 301 304 302 294 274 262 260 261 256 252 253 255 259 265 271 270 268 271 272 275 276 262 264 265 253 252 262 278 310 349 10 17 15 12 13 11 8 7 6 6 9 11 15 19
249 256 254 253 251 243 237 229 221 213 201 187 179 178 177 172 169 169 166 159 156 156 159 164 171 180 190 197 201 208 216 220 222 231 237 242 252 255 261 277 287 300 307 304 299 285 276 271 271 267 263 263 261 259 259 263 266 266 270 271 270 270 263 263 262 252 248 257 268 284 314 342 0 3 7 11 11 9 7 6 5 7 10 13 18
255 260 257 255 252 242 235 229 223 215 206 197 189 186 186 186 187 189 189 185 182 179 179 179 178 179 186 192 196 205 214 219 226 232 236 240 246 250 256 266 275 286 295 299 297 288 282 278 277 276 275 277 275 270 264 262 264 264 267 270 269 267 261 261 258 249 245 251 261 270 289 309 333 344 358 9 9 8 7 6 4 6 8 11 16
255 255 250 249 249 240 231 229 228 219 210 205 198 193 193 195 198 200 201 199 196 193 195 195 187 182 185 189 197 207 214 218 228 235 237 240 246 251 255 260 265 272 279 286 291 290 288 285 284 284 285 289 288 286 281 276 272 268 266 266 267 268 263 260 256 246 241 243 252 261 272 286 308 325 343 3 7 6 6 6 4 4 6 8 13
245 242 239 242 242 233 226 224 228 224 215 211 207 201 198 201 205 207 206 202 199 201 210 209 199 193 187 189 198 208 217 222 229 234 237 240 247 254 256 260 263 267 273 278 283 287 291 292 293 297 298 299 300 300 297 293 287 280 273 265 262 264 264 261 254 243 238 238 243 250 260 271 287 305 327 352 1 3 4 4 3 2 4 6 10
231 233 233 234 232 226 225 223 225 224 218 216 214 210 205 206 210 212 211 210 207 208 216 219 214 205 195 193 201 208 219 227 230 234 236 237 244 252 255 258 262 267 271 274 278 283 288 293 298 303 305 304 304 306 306 304 301 296 287 276 264 259 260 261 256 243 234 234 239 243 250 259 271 291 311 335 351 358 1 0 0 0 1 4 8
226 229 234 236 234 229 227 225 226 225 220 218 219 219 214 209 211 215 215 215 215 212 213 222 224 215 204 202 206 211 223 230 233 237 238 239 244 249 253 257 260 267 270 271 275 280 285 292 297 301 304 304 305 308 307 306 305 303 298 290 278 265 257 256 257 246 231 230 236 240 243 250 259 274 293 314 335 349 356 356 356 357 358 0 5
235 235 238 241 242 239 232 228 230 229 224 222 222 225 224 213 210 215 217 216 213 210 213 222 226 221 213 212 213 215 226 231 236 243 243 243 245 248 255 259 261 264 267 270 274 278 283 289 296 300 302 305 309 315 315 312 309 304 299 295 289 278 264 258 256 249 236 231 232 238 240 242 250 261 276 294 314 333 345 349 351 352 355 357 1
243 243 244 242 244 244 234 229 232 230 230 230 227 228 227 220 214 214 219 224 220 214 216 224 228 227 222 222 222 222 231 235 236 244 247 247 246 247 255 258 259 262 265 269 272 275 280 285 293 297 300 303 309 316 321 319 316 312 305 297 292 288 277 267 260 254 245 237 232 235 238 237 241 250 262 275 293 312 325 335 343 346 350 354 357
248 246 245 245 247 250 240 231 235 233 232 236 234 232 230 228 227 225 227 233 231 224 220 224 230 233 229 228 230 233 239 239 235 239 247 253 252 249 253 257 258 260 261 265 267 271 275 279 286 291 295 299 303 309 315 319 320 319 314 306 299 293 284 273 264 256 250 243 237 233 234 236 237 242 251 260 274 287 298 316 332 338 343 349 353
252 245 240 240 243 250 245 234 236 235 231 239 240 237 234 232 232 236 237 234 235 233 229 227 229 234 231 227 230 235 239 239 236 237 243 253 256 254 258 262 263 262 260 260 262 267 269 272 278 284 289 293 297 302 306 311 316 319 319 315 307 298 287 274 263 254 247 246 246 240 234 233 235 237 243 248 257 268 276 292 314 327 332 341 348
260 253 241 235 230 237 239 230 232 233 229 236 239 236 236 233 228 232 238 237 238 240 237 233 232 233 231 228 230 234 240 242 238 238 243 251 256 258 262 265 266 267 265 261 259 263 266 268 272 277 282 286 290 294 297 301 307 313 318 317 310 302 290 270 254 246 243 244 251 252 243 236 235 235 238 241 246 254 261 274 292 310 320 330 341
263 258 246 239 233 231 234 227 229 233 232 236 241 239 239 238 227 228 237 240 238 238 240 243 244 239 230 229 233 236 241 243 241 240 245 252 257 258 261 265 267 268 268 266 263 262 263 263 268 273 276 279 284 287 289 293 299 305 311 314 311 305 295 274 247 234 235 243 251 257 253 244 238 235 238 236 237 245 249 259 273 290 305 317 331
268 259 248 238 233 233 237 235 233 236 238 241 247 248 245 249 237 227 233 241 238 236 237 241 247 249 240 236 240 243 245 245 243 243 246 252 255 257 258 263 268 269 267 265 266 266 264 263 265 269 273 275 279 283 284 286 292 297 301 306 308 307 303 284 248 227 224 239 248 253 257 254 243 235 238 237 232 237 244 249 259 272 288 301 319
303 276 261 244 232 229 238 245 246 243 244 248 256 257 253 258 262 241 239 247 245 242 242 239 241 245 245 244 247 250 252 252 250 247 248 251 254 255 256 259 265 267 266 266 267 270 269 268 266 267 270 272 275 279 281 284 285 287 291 297 301 304 305 293 258 232 220 231 245 250 256 261 252 239 236 238 234 232 239 244 249 260 271 286 305
8 308 285 268 240 221 233 251 261 257 248 254 265 269 265 265 271 263 254 258 256 254 258 255 247 243 242 248 256 254 251 255 259 255 251 252 254 253 253 256 261 265 269 270 270 271 272 271 270 269 268 269 272 275 278 281 281 281 284 289 294 299 304 300 281 247 223 225 240 250 254 258 258 251 241 238 238 232 235 241 243 251 260 271 288
51 50 31 5 320 260 258 273 289 294 280 268 272 276 273 268 270 272 268 266 263 262 267 271 263 250 245 248 256 264 262 262 266 264 258 253 250 249 250 252 256 261 267 270 271 271 272 272 272 271 271 270 271 274 277 278 278 279 280 285 289 293 298 299 297 283 238 226 233 247 255 255 255 256 250 244 242 236 232 238 241 244 250 259 273
57 65 70 71 68 42 310 291 292 296 297 283 268 270 270 267 269 272 273 273 271 269 273 278 272 260 255 252 255 264 268 270 272 276 276 266 252 244 244 249 255 259 261 264 267 269 270 272 272 272 272 273 274 275 277 276 276 277 279 282 284 286 290 291 289 289 270 236 233 241 249 252 251 253 253 249 245 240 235 235 239 239 241 249 261
63 71 75 80 82 77 68 53 32 347 336 329 280 267 269 270 269 269 271 275 278 277 279 282 279 271 264 262 263 263 263 268 271 275 282 281 271 258 247 246 252 257 261 263 264 265 267 269 271 271 271 272 275 276 276 275 275 276 277 279 280 282 284 286 283 278 275 252 238 241 245 250 252 251 252 252 248 243 237 235 236 236 236 241 251
74 83 86 87 87 84 80 70 63 59 47 34 16 331 293 283 275 269 267 268 274 278 278 279 279 277 271 268 271 268 266 268 270 271 275 279 280 276 267 260 255 251 252 260 265 267 268 268 269 270 270 270 270 272 273 272 273 275 275 276 278 279 280 281 281 275 271 263 250 247 245 248 251 251 252 252 250 245 239 235 235 233 232 235 242
86 97 101 98 97 92 83 70 56 46 35 21 8 340 312 297 283 271 262 259 262 266 270 274 275 276 275 273 273 273 278 280 280 283 282 279 279 279 278 275 270 259 250 253 261 265 267 267 268 268 267 267 267 268 269 269 271 271 272 274 275 278 278 278 279 275 269 264 259 254 247 246 247 250 253 252 250 247 240 237 234 231 230 230 233
138 117 116 109 101 94 79 61 42 27 9 351 336 313 294 282 276 271 263 259 258 257 259 263 266 269 270 273 274 274 277 280 283 289 291 289 284 282 280 279 280 273 263 260 262 263 262 261 264 267 266 266 266 266 266 266 267 269 270 273 274 275 277 277 276 274 270 263 261 258 249 246 246 248 251 253 252 248 241 237 235 230 227 227 225
219 193 149 130 87 42 30 20 14 11 4 351 339 326 309 289 276 270 266 264 263 262 261 259 260 262 264 266 267 268 267 267 270 274 279 287 289 289 289 286 286 282 274 272 270 266 262 258 259 263 265 266 267 267 266 264 264 266 268 271 273 274 276 277 275 273 270 264 261 260 253 248 247 248 249 251 255 252 242 237 236 230 225 225 223
243 247 254 275 302 327 338 345 354 357 356 350 343 337 331 321 306 292 283 276 270 268 267 265 264 264 264 263 261 261 261 260 262 265 268 273 281 290 293 290 291 290 284 280 276 271 265 258 258 261 261 263 268 268 267 265 263 264 267 269 271 273 275 277 276 272 270 265 260 260 257 251 249 252 252 252 254 254 243 236 236 232 225 222 222
252 252 258 275 294 313 327 337 344 344 342 339 336 335 333 331 328 322 312 300 289 279 272 270 269 269 269 267 264 261 259 258 259 261 263 266 271 281 290 290 290 292 293 291 287 282 274 265 263 263 258 259 267 271 270 268 264 261 265 268 269 271 272 274 275 271 267 266 262 259 259 255 249 250 256 257 256 255 249 238 236 235 229 222 223
257 259 264 273 289 308 321 329 332 330 328 327 326 326 325 326 331 333 329 322 313 303 290 281 275 273 273 273 271 267 262 259 258 259 260 261 264 269 280 290 292 292 293 296 297 292 283 274 270 267 261 260 265 271 273 275 271 262 260 265 268 269 271 270 271 269 265 264 262 259 259 259 253 248 250 256 258 258 257 245 236 236 234 226 224
259 263 269 277 289 304 314 319 319 317 317 317 317 316 318 325 331 334 335 332 327 321 313 303 291 283 278 276 275 273 268 263 259 258 258 259 261 262 267 278 288 291 291 294 296 295 291 286 279 273 270 268 267 268 272 274 275 267 255 256 267 270 271 271 267 265 263 263 263 259 258 260 257 250 247 251 257 259 260 252 239 236 237 231 227
256 261 267 275 284 296 305 308 308 310 310 309 311 315 320 326 328 330 330 328 328 327 323 318 312 303 293 284 280 278 275 270 264 261 259 258 259 260 262 265 273 282 286 288 289 289 288 287 285 282 282 283 277 272 271 269 270 269 258 257 270 271 271 272 267 262 262 263 264 260 257 258 258 253 247 248 254 257 258 256 245 237 237 235 230
250 254 260 268 278 287 293 298 301 303 304 305 308 313 320 324 325 326 327 325 325 324 322 320 318 314 309 301 292 286 282 279 273 267 262 260 259 258 259 260 261 267 274 280 282 281 283 286 287 285 284 287 284 277 274 271 272 272 268 270 273 268 266 268 266 263 261 262 264 261 257 257 257 254 250 249 252 255 256 256 251 240 235 234 233
243 247 253 261 269 277 283 291 296 297 298 300 304 310 316 320 322 323 324 324 323 323 323 321 318 315 312 309 303 296 290 286 283 277 269 263 260 259 258 258 258 259 262 271 277 277 280 285 285 283 282 284 285 283 278 273 272 272 270 270 269 265 262 261 261 262 262 261 261 259 258 257 256 254 253 250 251 255 256 255 253 244 234 231 233
239 241 246 253 260 269 278 286 290 291 293 296 303 311 316 319 321 321 322 322 320 321 321 319 319 316 312 309 306 300 294 290 288 286 279 270 262 259 258 258 257 256 257 262 271 274 275 277 279 281 282 281 280 280 279 276 274 275 273 270 268 265 261 256 256 258 262 262 258 257 258 258 256 256 254 251 250 253 256 255 254 247 235 229 230
236 238 242 248 255 264 273 281 284 286 288 297 307 313 317 319 320 321 320 319 318 318 317 316 316 314 312 310 307 302 296 291 288 287 285 279 269 261 257 257 256 255 255 258 265 272 271 270 272 277 281 283 279 274 274 275 275 278 278 275 271 268 262 257 254 254 258 262 260 257 257 256 256 255 254 252 250 250 254 255 253 250 240 230 227
233 235 240 245 252 261 270 276 279 281 289 302 311 313 315 317 318 318 318 317 316 315 315 314 314 313 310 308 307 304 299 293 288 286 285 282 278 270 261 258 257 254 254 256 262 270 270 268 268 270 274 282 284 277 274 273 272 274 275 275 274 271 266 261 256 253 254 259 262 260 257 255 254 253 253 252 249 248 251 253 252 251 244 234 227
231 232 237 243 250 259 268 272 273 279 292 304 309 310 312 313 313 314 314 313 313 313 312 312 312 311 309 307 305 304 301 296 290 286 285 283 281 278 271 263 260 257 254 254 258 266 270 268 267 268 268 272 277 279 278 277 275 274 272 270 271 272 270 265 259 254 252 254 258 260 259 257 254 252 251 250 249 248 249 250 250 249 244 236 229
231 232 236 241 249 258 265 267 272 283 294 300 303 306 308 308 309 309 310 310 310 310 311 311 311 309 307 305 304 303 300 296 292 287 285 283 282 282 279 272 265 260 256 254 254 255 260 263 263 263 265 266 269 275 282 285 282 278 274 270 269 270 271 270 265 260 254 251 252 255 258 257 255 252 249 249 248 247 247 248 248 246 243 238 232
231 233 235 240 248 256 259 263 274 286 292 296 299 302 302 302 303 305 306 308 309 309 310 309 309 307 304 302 301 300 297 295 293 290 287 285 284 284 284 280 274 267 261 258 256 254 255 258 261 262 262 264 266 269 277 285 286 280 275 272 272 272 271 270 269 266 261 254 249 250 253 255 252 249 247 246 247 246 246 246 246 244 242 240 234
232 234 237 242 247 250 254 265 278 285 290 295 296 297 297 298 302 305 308 310 309 309 308 306 306 304 301 298 297 296 295 293 293 292 290 288 286 285 285 284 283 279 271 264 261 260 258 257 259 261 262 263 263 264 267 277 283 281 277 274 272 272 271 269 267 267 266 261 252 247 250 253 251 248 245 243 244 246 245 244 244 242 240 240 236
234 236 238 241 242 245 256 269 280 287 291 294 294 296 299 303 307 309 309 309 309 308 307 305 303 301 298 295 293 290 289 287 288 289 290 289 287 284 282 283 283 283 280 275 269 265 264 261 259 259 261 263 263 263 262 267 277 281 282 282 278 274 272 270 269 271 272 268 257 249 249 253 252 249 245 242 242 244 245 244 244 241 238 238 238
234 237 238 238 238 244 258 271 282 290 292 293 296 301 305 307 308 307 306 306 307 307 306 305 304 301 299 295 291 287 284 282 281 282 283 284 283 282 280 278 278 278 280 280 278 274 270 267 262 259 260 262 263 262 259 259 268 275 280 288 288 283 280 278 275 273 273 269 260 253 252 251 250 247 243 240 241 243 243 243 244 242 238 236 239
230 234 234 234 238 247 259 271 282 289 293 297 302 305 305 305 303 303 303 304 305 305 304 304 303 301 299 297 293 288 284 281 278 276 275 275 276 277 277 277 276 275 276 277 278 278 276 272 267 262 260 261 262 263 260 256 259 267 273 282 288 289 288 284 279 275 271 267 262 259 257 254 252 250 243 239 240 241 239 240 242 242 238 234 237
227 229 229 232 240 251 262 274 284 293 298 301 303 301 300 300 300 301 302 302 303 303 302 302 301 300 298 297 294 290 286 282 279 276 274 273 272 273 274 275 276 276 277 276 275 275 276 275 273 268 265 262 261 262 263 258 255 258 264 273 282 290 290 285 282 280 274 268 263 261 260 259 257 254 248 243 244 243 240 239 240 241 238 232 233
224 226 230 235 244 255 266 279 292 300 302 300 298 297 296 297 299 301 302 302 302 301 300 299 298 297 296 295 294 291 288 284 281 279 276 274 272 272 273 273 274 274 274 275 274 274 274 274 274 273 270 266 262 261 262 261 257 253 257 265 273 282 286 283 281 282 281 277 270 264 261 260 257 255 251 246 247 249 247 243 241 241 239 233 233
223 228 234 243 252 262 272 285 298 302 299 296 294 295 296 299 301 303 303 304 303 302 300 298 297 295 294 293 292 290 289 287 284 282 279 277 276 275 275 273 272 270 269 269 270 271 272 272 272 271 270 269 267 262 261 262 260 254 253 258 264 268 274 279 280 280 283 283 278 272 267 261 255 253 251 248 249 251 251 248 244 243 241 237 237
224 231 239 251 261 269 278 290 297 296 294 293 294 297 300 302 303 303 304 305 305 304 302 300 297 294 293 292 291 289 288 287 286 285 283 282 280 278 277 275 272 270 269 267 266 267 268 268 269 268 267 269 268 265 263 263 263 259 254 255 259 261 263 268 273 278 282 281 278 276 272 267 260 254 252 252 252 252 252 251 247 243 242 239 239
227 237 247 259 267 274 283 290 293 292 292 294 298 301 303 303 302 302 303 305 305 305 304 301 298 295 293 292 290 289 288 286 285 284 284 283 282 281 279 276 274 271 271 270 269 268 266 265 265 266 266 266 266 265 264 262 260 260 258 257 259 261 263 264 266 271 274 276 278 276 273 273 269 261 256 257 257 256 255 255 250 244 241 240 239
230 242 254 263 268 275 283 288 289 290 292 298 305 307 305 304 304 304 304 305 306 306 304 301 298 295 294 292 290 288 287 285 284 284 283 283 282 281 279 277 276 274 273 273 273 272 270 267 265 266 266 266 264 264 263 262 258 256 256 255 254 256 262 263 263 264 265 267 271 272 272 273 270 265 265 265 262 259 257 257 255 250 246 244 240
230 244 253 261 267 275 281 285 287 290 295 304 310 310 307 306 307 307 307 307 307 307 305 302 299 296 294 292 290 288 286 285 284 283 283 282 281 279 278 277 276 276 274 274 274 273 272 270 267 265 265 265 265 263 262 261 258 253 250 250 248 249 254 258 258 259 260 262 264 268 272 273 269 268 272 272 266 261 258 257 257 256 253 248 243
232 242 249 258 267 275 280 284 289 294 301 307 310 309 308 308 309 309 310 310 309 308 306 304 301 298 295 293 291 289 287 286 286 284 283 282 280 279 277 276 276 275 274 274 275 274 273 272 270 267 265 263 262 262 259 257 255 251 247 246 246 245 248 252 253 254 255 257 260 264 268 270 268 270 274 273 268 265 262 259 258 258 257 253 248
231 239 249 259 268 275 281 288 296 301 304 307 309 309 310 311 311 311 312 311 310 309 307 306 303 299 297 294 292 290 288 286 285 284 282 280 278 277 276 275 275 274 274 274 275 275 275 274 273 271 269 266 263 262 260 257 254 250 245 243 243 243 245 247 250 253 254 254 255 257 260 261 262 265 268 269 268 268 266 263 260 258 257 256 252
232 242 254 261 267 277 288 296 300 302 304 306 309 311 312 313 313 314 314 312 311 310 309 306 303 300 298 295 293 290 288 286 285 283 282 279 276 274 273 273 273 273 273 275 275 275 276 275 275 273 272 270 267 264 263 261 256 251 246 243 240 240 244 246 247 249 252 252 251 251 253 256 258 260 262 263 265 268 269 266 263 260 258 256 253